Погода в Ланьчжоу

Китай     36°05′18″N   103°41′19″E
темп.,
°C
ветер,
м/с
пор.,
м/с
влажн.,
%
обл.,
%
осадки,
мм/ч
давл.,
гПа
погр.,
м
4 марта, чт
чт423:00+4в123164 0.0 101730
02:00+2всв113736 0.0 101422
05:00+1зсз123599 0.0 101451
08:00+1з1134100 0.0 101422
11:00+4ссз2232100 0.0 1013318
14:00+7ссв2126100 0.0 1009565
17:00+8св232767 0.0 1009767
20:00+7св682769 0.0 10131142
5 марта, пт
пт523:00+4всв482492 0.0 1018632
02:00+2св372763 0.0 1018464
05:000с243681 0.0 1020281
08:000с113890 0.0 102294
11:00+2ссв1130100 0.0 1022464
14:00+5св3323100 0.0 10191139
17:00+6св5524100 0.0 10191366
20:00+4всв4631100 0.0 1023780
6 марта, сб
сб623:00+2юв0236100 0.0 1027183
02:00+2вюв123799 0.0 102792
05:00+1зюз0039100 0.0 102626
08:000ссв114183 0.0 102751
11:00+3с113314 0.0 1025510
14:00+6с22277 0.0 1020941
17:00+7ссв22240 0.0 1017682
20:00+6всв222720 0.0 1020169
7 марта, вс
вс723:00+4всв113190 0.0 102224
02:00+3в113592 0.0 102122
05:00+2ссз1139100 0.0 101929
08:00+2зсз1139100 0.0 101939
11:00+5ссз1132100 0.0 1018421
14:00+7св2228100 0.0 1014877
17:00+8ссв2229100 0.0 1014615
20:00+7ююв234392 0.0 1016162
8 марта, пн
пн823:00+4ююз226124 0.0 101957
02:00+3ю126345 0.0 101823
05:00+2ю22690 0.0 101730
08:00+2ююз12690 0.0 101926
11:00+6св11480 0.0 1018427
14:00+9св22340 0.0 1014710
17:00+12всв342684 0.0 1012867
20:00+9св243692 0.0 1014151